contact:dominique.lefevre@mio.osupytheas.fr, maurice.libes@osupytheas.fr, didier.mallarino@osupytheas.fr
Project:EMSO http://www.emso-fr.org/EMSO-France
Depth: 2436.0 m
Title:EMSO Ligure Ouest : Data MII capteur AQUADOPP
Date,Latitude,Longitude,X_East,Y_North,Z_Up,Amplitude_X,Amplitude_Y,Amplitude_Z,Batterie,SoundSpeed,Heading,Pitch,Roll,Pressure,TIS,Speed,Direction
, degrees North, degrees East, m.s-1, m.s-1,m.s-1, 1, 1, 1, Volt, m.s-1, degree, degree, degree, dbar, degree_C, m.s-1, degree
2022-07-21T00:04:03,42.805,6.029,0.047,-0.014,0.001,101.0,102.0,100.0,13.4,1505.2,321.1,-0.8,1.8,2471.039,13.28,0.049,106.6
2022-07-21T00:07:03,42.805,6.029,0.053,-0.02,-0.009,102.0,102.0,101.0,13.3,1505.2,323.3,-0.8,1.8,2471.032,13.28,0.056,110.7
2022-07-21T00:10:03,42.805,6.029,0.062,-0.01,-0.033,103.0,103.0,100.0,13.4,1505.2,323.1,-0.8,1.8,2471.012,13.28,0.062,99.2
2022-07-21T00:13:03,42.805,6.029,0.046,-0.003,-0.015,102.0,102.0,101.0,13.4,1505.2,319.7,-0.8,1.8,2471.019,13.28,0.046,93.7
2022-07-21T00:16:03,42.805,6.029,0.053,-0.009,0.012,101.0,102.0,100.0,13.4,1505.2,324.3,-0.8,1.8,2470.972,13.28,0.053,99.6
2022-07-21T00:19:03,42.805,6.029,0.044,0.0,-0.014,102.0,102.0,101.0,13.4,1505.2,323.8,-0.8,1.8,2471.018,13.28,0.044,90.0
2022-07-21T00:22:03,42.805,6.029,0.056,-0.001,-0.003,101.0,102.0,100.0,13.4,1505.2,325.8,-0.7,1.8,2471.018,13.28,0.056,91.0
2022-07-21T00:25:03,42.805,6.029,0.064,-0.024,-0.011,102.0,102.0,100.0,13.4,1505.2,333.1,-0.8,1.8,2471.011,13.28,0.068,110.6
2022-07-21T00:28:03,42.805,6.029,0.043,-0.041,-0.017,104.0,102.0,102.0,13.4,1505.2,327.9,-0.8,1.8,2471.01,13.28,0.059,133.6
2022-07-21T00:31:03,42.805,6.029,0.051,-0.021,-0.013,103.0,103.0,101.0,13.4,1505.2,332.6,-0.7,1.8,2470.991,13.28,0.055,112.4
2022-07-21T00:34:03,42.805,6.029,0.066,-0.019,-0.003,102.0,103.0,101.0,13.4,1505.2,326.3,-0.8,1.8,2471.042,13.28,0.068,106.1
2022-07-21T00:37:03,42.805,6.029,0.056,-0.022,-0.027,102.0,103.0,100.0,13.4,1505.2,328.5,-0.8,1.8,2471.015,13.28,0.06,111.4
2022-07-21T00:40:03,42.805,6.029,0.059,-0.027,-0.052,103.0,102.0,101.0,13.4,1505.2,325.7,-0.8,1.8,2471.013,13.28,0.064,114.6
2022-07-21T00:43:03,42.805,6.029,0.033,-0.002,-0.053,103.0,104.0,101.0,13.4,1505.2,322.3,-0.8,1.8,2471.011,13.28,0.033,93.5
2022-07-21T00:46:03,42.805,6.029,0.052,-0.015,-0.044,103.0,103.0,101.0,13.4,1505.2,332.4,-0.7,1.8,2470.993,13.28,0.054,106.1
2022-07-21T00:49:03,42.805,6.029,0.046,-0.001,-0.033,102.0,103.0,101.0,13.4,1505.2,321.0,-0.7,1.8,2471.004,13.28,0.046,91.2
2022-07-21T00:52:03,42.805,6.029,0.045,-0.02,-0.023,103.0,103.0,100.0,13.4,1505.2,330.0,-0.8,1.8,2471.01,13.28,0.049,114.0
2022-07-21T00:55:03,42.805,6.029,0.044,-0.019,-0.016,103.0,103.0,100.0,13.4,1505.2,321.9,-0.8,1.8,2470.994,13.28,0.047,113.4
2022-07-21T00:58:03,42.805,6.029,0.056,-0.003,-0.019,102.0,103.0,100.0,13.3,1505.2,319.2,-0.8,1.8,2471.013,13.28,0.056,93.1
2022-07-21T01:04:03,42.805,6.029,0.037,0.011,-0.001,104.0,104.0,102.0,13.4,1505.2,326.3,-0.8,1.8,2471.003,13.28,0.038,73.4
2022-07-21T01:07:03,42.805,6.029,0.034,-0.02,0.006,104.0,104.0,101.0,13.4,1505.2,328.4,-0.8,1.8,2471.024,13.28,0.039,120.5
2022-07-21T01:10:03,42.805,6.029,0.046,-0.009,-0.021,103.0,102.0,101.0,13.3,1505.2,330.2,-0.8,1.8,2471.039,13.28,0.046,101.1
2022-07-21T01:13:03,42.805,6.029,0.045,0.0,-0.002,102.0,102.0,100.0,13.4,1505.2,322.3,-0.7,1.8,2470.98,13.28,0.045,90.0
2022-07-21T01:16:03,42.805,6.029,0.044,-0.009,-0.023,102.0,102.0,101.0,13.4,1505.2,320.1,-0.8,1.9,2471.006,13.28,0.044,101.6
2022-07-21T01:19:03,42.805,6.029,0.041,-0.001,-0.037,102.0,102.0,100.0,13.4,1505.2,322.0,-0.8,1.8,2470.998,13.28,0.041,91.4
2022-07-21T01:22:03,42.805,6.029,0.052,-0.017,-0.022,102.0,102.0,100.0,13.4,1505.2,332.1,-0.8,1.8,2471.021,13.28,0.054,108.1
2022-07-21T01:25:03,42.805,6.029,0.045,-0.01,-0.011,103.0,102.0,101.0,13.3,1505.2,330.1,-0.8,1.8,2470.993,13.28,0.046,102.5
2022-07-21T01:28:03,42.805,6.029,0.02,-0.009,-0.026,102.0,102.0,100.0,13.3,1505.2,333.9,-0.8,1.9,2471.011,13.28,0.021,114.2
2022-07-21T01:31:03,42.805,6.029,0.035,0.007,-0.031,102.0,102.0,101.0,13.3,1505.2,328.4,-0.8,1.8,2470.99,13.28,0.035,78.7
2022-07-21T01:34:03,42.805,6.029,0.049,-0.018,-0.013,102.0,103.0,100.0,13.4,1505.2,329.3,-0.8,1.8,2471.052,13.28,0.052,110.2
2022-07-21T01:37:03,42.805,6.029,0.043,0.002,-0.033,101.0,102.0,100.0,13.4,1505.2,321.1,-0.8,1.8,2471.015,13.28,0.043,87.3
2022-07-21T01:40:03,42.805,6.029,0.047,-0.001,-0.033,101.0,103.0,101.0,13.4,1505.2,328.7,-0.8,1.9,2471.011,13.28,0.047,91.2
2022-07-21T01:43:03,42.805,6.029,0.031,-0.018,-0.049,103.0,103.0,100.0,13.4,1505.2,328.3,-0.8,1.9,2470.993,13.28,0.035,120.1
2022-07-21T01:46:03,42.805,6.029,0.055,-0.031,-0.039,103.0,101.0,101.0,13.4,1505.2,328.2,-0.8,1.8,2471.009,13.28,0.063,119.4
2022-07-21T01:49:03,42.805,6.029,0.051,-0.02,-0.06,103.0,101.0,100.0,13.4,1505.2,330.3,-0.8,1.8,2470.973,13.28,0.054,111.4
2022-07-21T01:52:03,42.805,6.029,0.051,0.001,-0.017,103.0,103.0,100.0,13.4,1505.2,324.2,-0.7,1.8,2470.947,13.28,0.051,88.9
2022-07-21T01:55:03,42.805,6.029,0.044,-0.009,-0.021,102.0,102.0,100.0,13.3,1505.2,328.4,-0.8,1.8,2470.98,13.28,0.044,101.6
2022-07-21T01:58:03,42.805,6.029,0.057,-0.004,0.0,102.0,103.0,101.0,13.4,1505.2,329.6,-0.8,1.8,2470.96,13.28,0.057,94.0
2022-07-21T02:04:03,42.805,6.029,0.069,-0.015,0.011,103.0,103.0,100.0,13.3,1505.2,327.4,-0.8,1.8,2471.077,13.28,0.07,102.3
2022-07-21T02:07:03,42.805,6.029,0.048,0.0,0.016,102.0,103.0,101.0,13.3,1505.2,326.1,-0.8,1.8,2471.034,13.28,0.048,90.0
2022-07-21T02:10:03,42.805,6.029,0.065,-0.003,0.003,103.0,102.0,100.0,13.4,1505.2,324.3,-0.7,1.9,2471.041,13.28,0.065,92.6
2022-07-21T02:13:03,42.805,6.029,0.042,0.002,-0.028,103.0,102.0,100.0,13.3,1505.2,324.6,-0.7,1.8,2471.003,13.28,0.042,87.3
2022-07-21T02:16:03,42.805,6.029,0.051,-0.007,-0.006,104.0,102.0,101.0,13.4,1505.2,324.6,-0.8,1.8,2470.995,13.28,0.051,97.8
2022-07-21T02:19:03,42.805,6.029,0.01,0.001,-0.014,102.0,102.0,100.0,13.4,1505.2,324.7,-0.7,1.8,2470.966,13.28,0.01,84.3
2022-07-21T02:22:03,42.805,6.029,0.052,-0.004,0.008,100.0,103.0,101.0,13.3,1505.2,325.5,-0.8,1.8,2470.988,13.28,0.052,94.4
2022-07-21T02:25:03,42.805,6.029,0.051,-0.011,-0.006,103.0,101.0,101.0,13.4,1505.2,327.3,-0.7,1.9,2470.978,13.28,0.052,102.2
2022-07-21T02:28:03,42.805,6.029,0.035,-0.022,-0.023,101.0,101.0,101.0,13.3,1505.2,323.1,-0.7,1.8,2470.967,13.28,0.041,122.2
2022-07-21T02:31:03,42.805,6.029,0.039,0.01,-0.018,102.0,102.0,101.0,13.4,1505.2,319.4,-0.8,1.8,2471.012,13.28,0.04,75.6
2022-07-21T02:34:03,42.805,6.029,0.041,0.0,0.003,103.0,103.0,99.0,13.4,1505.2,326.8,-0.7,1.8,2470.962,13.28,0.041,90.0
2022-07-21T02:37:03,42.805,6.029,0.053,-0.012,-0.032,102.0,102.0,101.0,13.4,1505.2,324.8,-0.8,1.8,2470.985,13.28,0.054,102.8
2022-07-21T02:40:03,42.805,6.029,0.043,-0.018,-0.059,103.0,102.0,100.0,13.3,1505.2,324.9,-0.8,1.8,2470.973,13.28,0.046,112.7
2022-07-21T02:43:03,42.805,6.029,0.049,0.016,0.001,102.0,102.0,101.0,13.4,1505.2,320.8,-0.8,1.9,2470.971,13.28,0.051,71.9
2022-07-21T02:46:03,42.805,6.029,0.08,-0.019,-0.016,103.0,103.0,100.0,13.4,1505.2,331.3,-0.7,1.8,2470.967,13.28,0.082,103.4
2022-07-21T02:49:03,42.805,6.029,0.049,-0.001,-0.009,102.0,103.0,101.0,13.3,1505.2,327.0,-0.8,1.8,2470.961,13.28,0.049,91.2
2022-07-21T02:52:03,42.805,6.029,0.023,0.013,-0.022,102.0,105.0,100.0,13.4,1505.2,328.4,-0.8,1.8,2470.968,13.28,0.026,60.5
2022-07-21T02:55:03,42.805,6.029,0.069,-0.009,0.005,102.0,103.0,100.0,13.4,1505.2,322.7,-0.8,1.8,2470.986,13.28,0.069,97.4
2022-07-21T02:58:03,42.805,6.029,0.035,0.007,-0.002,103.0,105.0,101.0,13.4,1505.2,326.1,-0.7,1.8,2470.973,13.28,0.035,78.7
2022-07-21T03:04:03,42.805,6.029,0.055,0.005,-0.017,103.0,102.0,101.0,13.3,1505.2,323.8,-0.8,1.8,2471.009,13.28,0.055,84.8
2022-07-21T03:07:03,42.805,6.029,0.048,-0.015,-0.003,102.0,102.0,101.0,13.3,1505.2,331.7,-0.8,1.8,2470.966,13.28,0.05,107.4
2022-07-21T03:10:03,42.805,6.029,0.029,-0.006,-0.025,102.0,102.0,102.0,13.4,1505.2,320.7,-0.8,1.8,2470.969,13.28,0.029,101.7
2022-07-21T03:13:03,42.805,6.029,0.063,-0.01,-0.017,102.0,103.0,100.0,13.3,1505.2,321.5,-0.8,1.8,2470.98,13.28,0.063,99.0
2022-07-21T03:16:03,42.805,6.029,0.042,-0.02,-0.028,103.0,102.0,102.0,13.4,1505.2,332.9,-0.7,1.8,2470.969,13.28,0.046,115.5
2022-07-21T03:19:03,42.805,6.029,0.046,-0.038,-0.027,101.0,103.0,101.0,13.4,1505.2,332.6,-0.7,1.8,2470.962,13.28,0.059,129.6
2022-07-21T03:22:03,42.805,6.029,0.032,-0.02,-0.025,102.0,102.0,101.0,13.4,1505.2,332.2,-0.8,1.8,2470.953,13.28,0.037,122.0
2022-07-21T03:25:03,42.805,6.029,0.061,-0.003,-0.024,101.0,103.0,102.0,13.3,1505.2,324.6,-0.7,1.8,2470.974,13.28,0.061,92.8
2022-07-21T03:28:03,42.805,6.029,0.044,-0.011,-0.035,103.0,102.0,101.0,13.4,1505.2,321.3,-0.8,1.8,2470.951,13.28,0.045,104.0
2022-07-21T03:31:03,42.805,6.029,0.026,-0.011,-0.041,102.0,103.0,101.0,13.3,1505.2,329.7,-0.8,1.8,2470.936,13.28,0.028,112.9
2022-07-21T03:34:03,42.805,6.029,0.037,-0.008,-0.031,102.0,102.0,101.0,13.4,1505.2,321.7,-0.8,1.8,2470.945,13.28,0.037,102.2
2022-07-21T03:37:03,42.805,6.029,0.043,0.008,-0.01,103.0,103.0,101.0,13.4,1505.2,328.0,-0.8,1.8,2470.941,13.28,0.043,79.5
2022-07-21T03:40:03,42.805,6.029,0.055,0.011,-0.02,102.0,103.0,101.0,13.4,1505.2,322.9,-0.7,1.8,2470.959,13.28,0.056,78.7
2022-07-21T03:43:03,42.805,6.029,0.027,-0.004,-0.012,103.0,104.0,100.0,13.4,1505.2,326.7,-0.8,1.9,2470.962,13.28,0.027,98.4
2022-07-21T03:46:03,42.805,6.029,0.042,0.01,-0.022,103.0,103.0,100.0,13.3,1505.2,323.4,-0.7,1.8,2470.942,13.28,0.043,76.6
2022-07-21T03:49:03,42.805,6.029,0.082,0.0,-0.016,103.0,102.0,101.0,13.4,1505.2,323.2,-0.8,1.8,2470.926,13.28,0.081,90.0
2022-07-21T03:52:03,42.805,6.029,0.045,-0.016,-0.006,103.0,103.0,101.0,13.4,1505.2,327.6,-0.8,1.8,2470.957,13.28,0.047,109.6
2022-07-21T03:55:03,42.805,6.029,0.039,-0.002,-0.007,102.0,102.0,102.0,13.4,1505.2,324.0,-0.8,1.8,2470.948,13.28,0.039,92.9
2022-07-21T03:58:03,42.805,6.029,0.034,-0.006,-0.016,102.0,103.0,101.0,13.3,1505.2,321.7,-0.7,1.8,2470.931,13.28,0.034,100.0
2022-07-21T04:04:03,42.805,6.029,0.036,-0.004,-0.027,104.0,102.0,100.0,13.4,1505.2,326.4,-0.7,1.8,2470.971,13.28,0.036,96.3
2022-07-21T04:07:03,42.805,6.029,0.044,-0.007,-0.04,102.0,104.0,101.0,13.4,1505.2,328.1,-0.8,1.8,2470.967,13.28,0.044,99.0
2022-07-21T04:10:03,42.805,6.029,0.071,-0.004,-0.018,101.0,104.0,101.0,13.3,1505.2,322.0,-0.8,1.8,2471.0,13.28,0.071,93.2
2022-07-21T04:13:03,42.805,6.029,0.054,-0.021,-0.048,103.0,103.0,101.0,13.4,1505.2,327.9,-0.7,1.8,2470.963,13.28,0.057,111.2
2022-07-21T04:16:03,42.805,6.029,0.027,-0.001,-0.015,102.0,103.0,101.0,13.4,1505.2,323.0,-0.7,1.8,2470.974,13.28,0.027,92.1
2022-07-21T04:19:03,42.805,6.029,0.037,-0.007,0.001,104.0,102.0,102.0,13.4,1505.2,323.3,-0.8,1.8,2470.938,13.28,0.037,100.7
2022-07-21T04:22:03,42.805,6.029,0.058,0.005,-0.011,103.0,103.0,100.0,13.3,1505.2,323.1,-0.8,1.8,2470.95,13.28,0.058,85.1
2022-07-21T04:25:03,42.805,6.029,0.033,-0.007,-0.038,103.0,102.0,101.0,13.4,1505.2,323.7,-0.7,1.8,2470.936,13.28,0.033,102.0
2022-07-21T04:28:03,42.805,6.029,0.037,-0.004,-0.036,102.0,103.0,101.0,13.3,1505.2,324.3,-0.7,1.8,2470.935,13.28,0.037,96.2
2022-07-21T04:31:03,42.805,6.029,0.042,-0.007,-0.048,103.0,103.0,101.0,13.4,1505.2,327.7,-0.8,1.8,2470.934,13.28,0.042,99.5
2022-07-21T04:34:03,42.805,6.029,0.059,0.0,0.004,103.0,103.0,101.0,13.4,1505.2,321.1,-0.8,1.8,2470.935,13.28,0.058,90.0
2022-07-21T04:37:03,42.805,6.029,0.045,-0.002,0.0,103.0,103.0,100.0,13.4,1505.2,321.2,-0.7,1.8,2470.941,13.28,0.045,92.5
2022-07-21T04:40:03,42.805,6.029,0.071,0.009,-0.012,103.0,103.0,101.0,13.4,1505.2,319.1,-0.7,1.8,2470.912,13.28,0.071,82.8
2022-07-21T04:43:03,42.805,6.029,0.031,0.0,-0.063,103.0,102.0,101.0,13.3,1505.2,323.6,-0.8,1.8,2470.924,13.28,0.03,90.0
2022-07-21T04:46:03,42.805,6.029,0.037,0.01,-0.025,102.0,104.0,101.0,13.3,1505.2,321.7,-0.8,1.8,2470.896,13.28,0.038,74.9
2022-07-21T04:49:03,42.805,6.029,0.032,0.015,-0.003,103.0,103.0,101.0,13.4,1505.2,325.0,-0.7,1.8,2470.901,13.28,0.035,64.9
2022-07-21T04:52:03,42.805,6.029,0.025,0.003,-0.019,102.0,103.0,101.0,13.3,1505.2,328.6,-0.8,1.8,2470.911,13.28,0.025,83.2
2022-07-21T04:55:03,42.805,6.029,0.054,-0.007,-0.043,102.0,103.0,101.0,13.4,1505.2,324.4,-0.8,1.8,2470.924,13.28,0.054,97.4
2022-07-21T04:58:03,42.805,6.029,0.036,-0.017,-0.014,103.0,103.0,100.0,13.3,1505.2,329.5,-0.8,1.8,2470.931,13.28,0.039,115.3
2022-07-21T05:04:03,42.805,6.029,0.026,-0.01,-0.009,102.0,102.0,101.0,13.3,1505.2,327.8,-0.7,1.8,2470.952,13.28,0.027,111.0
2022-07-21T05:07:03,42.805,6.029,0.034,-0.014,-0.016,102.0,103.0,100.0,13.3,1505.2,327.7,-0.8,1.8,2470.948,13.28,0.036,112.4
2022-07-21T05:10:03,42.805,6.029,0.054,-0.008,-0.027,103.0,103.0,100.0,13.4,1505.2,327.5,-0.8,1.8,2470.926,13.28,0.054,98.4
2022-07-21T05:13:03,42.805,6.029,0.038,-0.004,-0.022,102.0,103.0,101.0,13.4,1505.2,326.4,-0.8,1.8,2470.931,13.28,0.038,96.0
2022-07-21T05:16:03,42.805,6.029,0.073,-0.014,-0.008,102.0,103.0,101.0,13.4,1505.2,332.6,-0.8,1.8,2470.917,13.28,0.074,100.9
2022-07-21T05:19:03,42.805,6.029,0.041,0.0,-0.019,103.0,102.0,101.0,13.4,1505.2,319.4,-0.8,1.8,2470.877,13.28,0.041,90.0
2022-07-21T05:22:03,42.805,6.029,0.055,-0.003,-0.029,103.0,102.0,100.0,13.3,1505.2,323.5,-0.8,1.8,2470.929,13.28,0.055,93.1
2022-07-21T05:25:03,42.805,6.029,0.049,-0.018,-0.047,102.0,102.0,100.0,13.3,1505.2,321.9,-0.7,1.9,2470.905,13.28,0.052,110.2
2022-07-21T05:28:03,42.805,6.029,0.027,0.002,-0.025,103.0,102.0,101.0,13.4,1505.2,328.8,-0.7,1.8,2470.927,13.28,0.027,85.8
2022-07-21T05:31:03,42.805,6.029,0.035,0.012,-0.018,102.0,102.0,101.0,13.4,1505.2,329.6,-0.7,1.8,2470.91,13.28,0.037,71.1
2022-07-21T05:34:03,42.805,6.029,0.013,0.007,-0.02,102.0,103.0,101.0,13.4,1505.2,327.8,-0.8,1.8,2470.899,13.28,0.014,61.7
2022-07-21T05:37:03,42.805,6.029,0.014,0.0,-0.033,103.0,103.0,101.0,13.3,1505.2,320.6,-0.7,1.8,2470.916,13.28,0.014,90.0
2022-07-21T05:40:03,42.805,6.029,0.03,-0.008,-0.03,102.0,102.0,102.0,13.4,1505.2,320.4,-0.8,1.9,2470.916,13.28,0.031,104.9
2022-07-21T05:43:03,42.805,6.029,0.056,0.008,0.008,102.0,103.0,101.0,13.4,1505.2,323.2,-0.7,1.8,2470.916,13.28,0.056,81.9
2022-07-21T05:46:03,42.805,6.029,0.036,0.002,0.006,102.0,104.0,101.0,13.4,1505.2,324.3,-0.7,1.8,2470.846,13.28,0.036,86.8
2022-07-21T05:49:03,42.805,6.029,0.051,0.002,-0.028,103.0,103.0,99.0,13.4,1505.2,322.1,-0.7,1.9,2470.915,13.28,0.051,87.8
2022-07-21T05:52:03,42.805,6.029,0.027,-0.006,-0.066,103.0,102.0,100.0,13.4,1505.2,323.7,-0.7,1.8,2470.902,13.28,0.027,102.5
2022-07-21T05:55:03,42.805,6.029,0.03,0.005,-0.024,103.0,101.0,102.0,13.4,1505.2,331.1,-0.8,1.8,2470.916,13.28,0.03,80.5
2022-07-21T05:58:03,42.805,6.029,0.033,-0.018,-0.024,103.0,102.0,101.0,13.4,1505.2,324.7,-0.8,1.8,2470.907,13.28,0.037,118.6
2022-07-21T06:04:03,42.805,6.029,0.054,-0.015,-0.041,103.0,102.0,101.0,13.4,1505.2,321.8,-0.8,1.8,2470.908,13.28,0.056,105.5
2022-07-21T06:07:03,42.805,6.029,0.033,-0.006,-0.037,102.0,104.0,100.0,13.4,1505.2,325.1,-0.7,1.8,2470.921,13.28,0.033,100.3
2022-07-21T06:10:03,42.805,6.029,0.037,0.034,-0.017,103.0,102.0,101.0,13.4,1505.2,319.0,-0.8,1.8,2470.922,13.28,0.05,47.4
2022-07-21T06:13:03,42.805,6.029,0.041,-0.015,-0.04,102.0,103.0,100.0,13.4,1505.2,330.8,-0.8,1.8,2470.909,13.28,0.043,110.1
2022-07-21T06:16:03,42.805,6.029,0.036,0.002,-0.004,102.0,103.0,100.0,13.4,1505.2,327.9,-0.8,1.8,2470.926,13.28,0.036,86.8
2022-07-21T06:19:03,42.805,6.029,0.042,-0.001,-0.009,103.0,102.0,100.0,13.4,1505.2,324.9,-0.7,1.8,2470.878,13.28,0.042,91.4
2022-07-21T06:22:03,42.805,6.029,0.053,0.013,-0.036,102.0,102.0,100.0,13.4,1505.2,321.5,-0.8,1.8,2470.881,13.28,0.054,76.2
2022-07-21T06:25:03,42.805,6.029,0.043,0.0,-0.018,102.0,103.0,101.0,13.3,1505.2,319.1,-0.8,1.8,2470.877,13.28,0.043,90.0
2022-07-21T06:28:03,42.805,6.029,0.051,-0.016,-0.014,101.0,103.0,102.0,13.4,1505.2,329.5,-0.7,1.8,2470.867,13.28,0.053,107.4
2022-07-21T06:31:03,42.805,6.029,0.046,0.014,-0.017,103.0,103.0,101.0,13.4,1505.2,323.8,-0.8,1.8,2470.887,13.28,0.048,73.1
2022-07-21T06:34:03,42.805,6.029,0.027,0.001,-0.034,102.0,102.0,103.0,13.3,1505.2,324.4,-0.8,1.9,2470.891,13.28,0.027,87.9
2022-07-21T06:37:03,42.805,6.029,0.024,-0.006,-0.016,103.0,101.0,101.0,13.4,1505.2,328.8,-0.8,1.8,2470.873,13.28,0.024,104.0
2022-07-21T06:40:03,42.805,6.029,0.031,-0.002,0.017,102.0,103.0,101.0,13.4,1505.2,331.6,-0.7,1.8,2470.84,13.28,0.031,93.7
2022-07-21T06:43:03,42.805,6.029,0.039,-0.011,-0.023,102.0,103.0,101.0,13.4,1505.2,326.3,-0.7,1.8,2470.894,13.28,0.04,105.7
2022-07-21T06:46:03,42.805,6.029,0.044,-0.002,-0.014,102.0,103.0,101.0,13.3,1505.2,325.8,-0.8,1.8,2470.914,13.28,0.044,92.6
2022-07-21T06:49:03,42.805,6.029,0.035,0.016,-0.047,102.0,104.0,101.0,13.4,1505.2,321.5,-0.7,1.9,2470.891,13.28,0.038,65.4
2022-07-21T06:52:03,42.805,6.029,0.076,-0.014,-0.015,102.0,103.0,101.0,13.4,1505.2,319.7,-0.8,1.8,2470.833,13.28,0.077,100.4
2022-07-21T06:55:03,42.805,6.029,0.053,-0.013,-0.048,104.0,102.0,100.0,13.3,1505.2,322.9,-0.7,1.8,2470.859,13.28,0.054,103.8
2022-07-21T06:58:03,42.805,6.029,0.044,-0.002,-0.03,102.0,102.0,102.0,13.3,1505.2,324.4,-0.8,1.8,2470.837,13.28,0.044,92.6
2022-07-21T07:04:03,42.805,6.029,0.042,-0.013,-0.005,103.0,102.0,101.0,13.4,1505.2,326.6,-0.8,1.8,2470.901,13.28,0.043,107.2
2022-07-21T07:07:03,42.805,6.029,0.023,0.005,-0.013,102.0,102.0,102.0,13.4,1505.2,319.4,-0.8,1.8,2470.885,13.28,0.023,77.7
2022-07-21T07:10:03,42.805,6.029,0.061,-0.018,-0.043,102.0,103.0,101.0,13.3,1505.2,320.5,-0.7,1.8,2470.888,13.28,0.063,106.4
2022-07-21T07:13:03,42.805,6.029,0.022,-0.007,-0.019,103.0,103.0,100.0,13.4,1505.2,328.2,-0.8,1.8,2470.93,13.28,0.023,107.6
2022-07-21T07:16:03,42.805,6.029,0.05,-0.018,-0.039,103.0,102.0,101.0,13.4,1505.2,323.8,-0.7,1.8,2470.914,13.28,0.053,109.8
2022-07-21T07:19:03,42.805,6.029,0.056,-0.009,-0.025,102.0,102.0,102.0,13.4,1505.2,332.6,-0.8,1.8,2470.845,13.28,0.056,99.1
2022-07-21T07:22:03,42.805,6.029,0.044,-0.004,-0.009,104.0,103.0,101.0,13.4,1505.2,328.1,-0.7,1.8,2470.91,13.28,0.044,95.2
2022-07-21T07:25:03,42.805,6.029,0.042,0.009,0.0,101.0,103.0,101.0,13.4,1505.2,328.9,-0.8,1.8,2470.89,13.28,0.042,77.9
2022-07-21T07:28:03,42.805,6.029,0.057,-0.028,-0.021,104.0,103.0,101.0,13.4,1505.2,329.2,-0.7,1.8,2470.866,13.28,0.063,116.2
2022-07-21T07:31:03,42.805,6.029,0.041,0.001,-0.026,101.0,104.0,100.0,13.4,1505.2,327.0,-0.7,1.8,2470.862,13.28,0.041,88.6
2022-07-21T07:34:03,42.805,6.029,0.058,-0.01,-0.024,103.0,102.0,101.0,13.3,1505.2,325.8,-0.8,1.8,2470.871,13.28,0.058,99.8
2022-07-21T07:37:03,42.805,6.029,0.028,0.009,-0.005,103.0,102.0,100.0,13.4,1505.2,328.6,-0.8,1.8,2470.86,13.28,0.029,72.2
2022-07-21T07:40:03,42.805,6.029,0.073,0.009,0.016,101.0,103.0,100.0,13.4,1505.2,319.5,-0.7,1.8,2470.855,13.28,0.073,83.0
2022-07-21T07:43:03,42.805,6.029,0.048,0.007,-0.02,103.0,102.0,100.0,13.3,1505.2,327.5,-0.8,1.8,2470.872,13.28,0.048,81.7
2022-07-21T07:46:03,42.805,6.029,0.062,-0.017,-0.02,102.0,102.0,101.0,13.4,1505.2,323.2,-0.8,1.8,2470.871,13.28,0.064,105.3
2022-07-21T07:49:03,42.805,6.029,0.051,-0.009,-0.028,102.0,104.0,101.0,13.4,1505.2,319.3,-0.7,1.8,2470.839,13.28,0.051,100.0
2022-07-21T07:52:03,42.805,6.029,0.05,0.02,0.006,102.0,102.0,100.0,13.4,1505.2,332.1,-0.7,1.8,2470.871,13.28,0.053,68.2
2022-07-21T07:55:03,42.805,6.029,0.042,-0.023,-0.017,102.0,103.0,100.0,13.4,1505.2,328.7,-0.8,1.8,2470.89,13.28,0.047,118.7
2022-07-21T07:58:03,42.805,6.029,0.054,-0.01,-0.016,103.0,102.0,100.0,13.4,1505.2,321.0,-0.8,1.8,2470.85,13.28,0.054,100.5
2022-07-21T08:04:03,42.805,6.029,0.037,0.008,-0.027,102.0,102.0,101.0,13.3,1505.2,324.1,-0.8,1.9,2470.933,13.28,0.037,77.8
2022-07-21T08:07:03,42.805,6.029,0.034,-0.011,-0.023,102.0,102.0,101.0,13.3,1505.2,329.3,-0.8,1.8,2470.892,13.28,0.035,107.9
2022-07-21T08:10:03,42.805,6.029,0.048,-0.002,-0.049,103.0,102.0,100.0,13.4,1505.2,319.2,-0.8,1.8,2470.909,13.28,0.048,92.4
2022-07-21T08:13:03,42.805,6.029,0.042,0.003,-0.002,103.0,103.0,100.0,13.3,1505.2,326.1,-0.8,1.8,2470.898,13.28,0.042,85.9
2022-07-21T08:16:03,42.805,6.029,0.048,-0.017,-0.016,102.0,103.0,100.0,13.4,1505.2,328.2,-0.8,1.9,2470.883,13.28,0.05,109.5
2022-07-21T08:19:03,42.805,6.029,0.031,-0.009,-0.023,102.0,102.0,101.0,13.4,1505.2,320.2,-0.8,1.8,2470.861,13.28,0.032,106.2
2022-07-21T08:22:03,42.805,6.029,0.043,0.012,-0.037,103.0,101.0,102.0,13.4,1505.2,326.5,-0.8,1.8,2470.839,13.28,0.044,74.4
2022-07-21T08:25:03,42.805,6.029,0.051,-0.017,0.0,102.0,102.0,100.0,13.3,1505.2,324.9,-0.7,1.8,2470.856,13.28,0.053,108.4
2022-07-21T08:28:03,42.805,6.029,0.038,-0.013,-0.025,101.0,102.0,102.0,13.4,1505.2,330.8,-0.7,1.8,2470.883,13.28,0.04,108.9
2022-07-21T08:31:03,42.805,6.029,0.021,-0.007,-0.004,103.0,102.0,100.0,13.4,1505.2,326.3,-0.8,1.9,2470.848,13.28,0.022,108.4
2022-07-21T08:34:03,42.805,6.029,0.032,-0.007,-0.024,102.0,103.0,101.0,13.4,1505.2,319.6,-0.7,1.8,2470.817,13.28,0.032,102.3
2022-07-21T08:37:03,42.805,6.029,0.049,0.001,-0.015,104.0,104.0,101.0,13.3,1505.2,328.3,-0.8,1.8,2470.887,13.28,0.049,88.8
2022-07-21T08:40:03,42.805,6.029,0.031,-0.018,-0.01,102.0,104.0,100.0,13.3,1505.2,325.2,-0.7,1.8,2470.872,13.28,0.035,120.1
2022-07-21T08:43:03,42.805,6.029,0.037,-0.014,-0.033,103.0,102.0,100.0,13.3,1505.2,320.8,-0.8,1.8,2470.884,13.28,0.039,110.7
2022-07-21T08:46:03,42.805,6.029,0.052,-0.018,-0.021,102.0,103.0,100.0,13.4,1505.2,320.1,-0.7,1.8,2470.851,13.28,0.055,109.1
2022-07-21T08:49:03,42.805,6.029,0.058,-0.001,-0.024,102.0,103.0,100.0,13.4,1505.2,323.6,-0.7,1.8,2470.874,13.28,0.058,91.0
2022-07-21T08:52:03,42.805,6.029,0.054,-0.003,-0.006,102.0,102.0,101.0,13.4,1505.2,326.3,-0.8,1.8,2470.863,13.28,0.054,93.2
2022-07-21T08:55:03,42.805,6.029,0.053,-0.006,-0.012,102.0,103.0,101.0,13.4,1505.2,328.2,-0.8,1.8,2470.831,13.28,0.053,96.5
2022-07-21T08:58:03,42.805,6.029,0.028,0.011,-0.031,102.0,102.0,99.0,13.3,1505.2,322.1,-0.8,1.8,2470.866,13.28,0.03,68.6
2022-07-21T09:04:03,42.805,6.029,0.045,0.007,-0.015,103.0,101.0,102.0,13.4,1505.2,321.7,-0.8,1.8,2470.867,13.28,0.045,81.2
2022-07-21T09:07:03,42.805,6.029,0.045,0.009,0.001,102.0,103.0,101.0,13.4,1505.2,326.0,-0.8,1.8,2470.875,13.28,0.045,78.7
2022-07-21T09:10:03,42.805,6.029,0.075,-0.019,0.001,102.0,104.0,100.0,13.4,1505.2,327.3,-0.8,1.8,2470.889,13.28,0.077,104.2
2022-07-21T09:13:03,42.805,6.029,0.059,0.007,0.022,103.0,102.0,101.0,13.3,1505.2,320.9,-0.8,1.8,2470.86,13.28,0.059,83.2
2022-07-21T09:16:03,42.805,6.029,0.038,0.011,0.007,102.0,102.0,101.0,13.3,1505.2,322.6,-0.8,1.8,2470.884,13.28,0.039,73.9
2022-07-21T09:19:03,42.805,6.029,0.021,0.009,-0.018,102.0,103.0,101.0,13.3,1505.2,323.9,-0.7,1.8,2470.868,13.28,0.022,66.8
2022-07-21T09:22:03,42.805,6.029,0.053,-0.018,-0.015,103.0,102.0,101.0,13.4,1505.2,332.1,-0.7,1.8,2470.871,13.28,0.055,108.8
2022-07-21T09:25:03,42.805,6.029,0.056,-0.034,-0.014,102.0,103.0,100.0,13.4,1505.2,331.9,-0.8,1.8,2470.923,13.28,0.065,121.3
2022-07-21T09:28:03,42.805,6.029,0.028,-0.011,-0.002,103.0,103.0,100.0,13.3,1505.2,332.6,-0.7,1.8,2470.867,13.28,0.03,111.4
2022-07-21T09:31:03,42.805,6.029,0.051,0.005,-0.024,103.0,104.0,100.0,13.3,1505.2,321.9,-0.7,1.8,2470.866,13.28,0.051,84.4
2022-07-21T09:34:03,42.805,6.029,0.042,-0.014,-0.023,102.0,102.0,101.0,13.3,1505.2,327.6,-0.8,1.8,2470.871,13.28,0.044,108.4
2022-07-21T09:37:03,42.805,6.029,0.042,0.02,-0.001,103.0,104.0,100.0,13.4,1505.2,320.1,-0.7,1.8,2470.866,13.28,0.046,64.5
2022-07-21T09:40:03,42.805,6.029,0.04,-0.013,-0.019,103.0,102.0,102.0,13.3,1505.2,326.1,-0.7,1.8,2470.875,13.28,0.042,108.0
2022-07-21T09:43:03,42.805,6.029,0.046,-0.007,-0.015,103.0,101.0,100.0,13.4,1505.2,322.5,-0.8,1.9,2470.872,13.28,0.046,98.7
2022-07-21T09:46:03,42.805,6.029,0.046,-0.022,-0.022,103.0,103.0,100.0,13.4,1505.2,332.2,-0.7,1.8,2470.874,13.28,0.05,115.6
2022-07-21T09:49:03,42.805,6.029,0.051,-0.003,-0.032,103.0,103.0,101.0,13.4,1505.2,330.2,-0.8,1.8,2470.869,13.28,0.051,93.4
2022-07-21T09:52:03,42.805,6.029,0.033,-0.01,-0.015,104.0,103.0,101.0,13.4,1505.2,323.9,-0.8,1.8,2470.867,13.28,0.034,106.9
2022-07-21T09:55:03,42.805,6.029,0.078,-0.02,-0.009,103.0,103.0,101.0,13.4,1505.2,324.2,-0.7,1.8,2470.927,13.28,0.08,104.4
2022-07-21T09:58:03,42.805,6.029,0.024,-0.004,-0.003,103.0,101.0,100.0,13.4,1505.2,330.2,-0.7,1.8,2470.868,13.28,0.024,99.5